Tracking 19562 objects as of 25-Mar-2019
HD Live streaming from Space Station
objects crossing your sky now

COSMOS 2234 (GLONASS)

Track COSMOS 2234 (GLONASS) now!
COSMOS 2234 (GLONASS) is classified as:


NORAD ID: 22512
Int'l Code: 1993-010A
Perigee: 19,078.2 km
Apogee: 19,195.7 km
Inclination: 64.1 °
Period: 675.7 minutes
Semi major axis: 25507 km
RCS: 2.1962 m2 (large)
Launch date: February 17, 1993
Source: Commonwealth of Independent States (former USSR) (CIS)
Launch site: TYURATAM MISSILE AND SPACE COMPLEX (TTMTR)
aabbcc
Your satellite tracking list
Your tracking list is empty




NASA's NSSDC Master Catalog

Two Line Element Set (TLE):
1 22512U 93010A   19082.42786294 +.00000019 +00000-0 +00000-0 0  9997
2 22512 064.0655 161.0949 0023031 205.2216 051.5558 02.13103591202869
Source of the keplerian elements: AFSPC